CFG37J EDDS-LGSK

Flight info

Callsign CFG37J
Flight time 2h 4m
Altitude 31000
Route ABTAL4H/07 ABTAL L173 RIXED Y161 MAH L173 EBEDA DCT LATLO/N0451F350 DCT OBEDI DCT KLAGY DCT MAGAM DCT IRDIV DCT PODOB DCT MEDUX UM867 KOGAT DCT ERANA UL737 TSL UL617 LEKPO/N0405F230 L617 SKP
Aircraft A321/M-SDE3FGHIRWY/LB1

Departure

Time 2026-05-08 14:37
Airport Stuttgart Airport (EDDS)

Arrival

Time 2026-05-08 16:42
Airport Skiathos Island National Airport (LGSK)
Time Latitude Longitude Altitude Speed Heading
2026-05-08 14:11 48.68879 9.19361 1288 ft 0 kts 345°
2026-05-08 14:28 48.68874 9.19363 1290 ft 2 kts 346°
2026-05-08 14:28 48.68858 9.19369 1287 ft 2 kts 347°
2026-05-08 14:28 48.68842 9.19374 1290 ft 2 kts 351°
2026-05-08 14:29 48.68826 9.19377 1289 ft 2 kts 360°
2026-05-08 14:29 48.68809 9.19374 1289 ft 2 kts 35°
2026-05-08 14:29 48.68800 9.19358 1288 ft 1 kts 73°
2026-05-08 14:29 48.68799 9.19353 1287 ft 0 kts 74°
2026-05-08 14:32 48.68802 9.19366 1289 ft 2 kts 73°
2026-05-08 14:33 48.68810 9.19409 1287 ft 10 kts 73°
2026-05-08 14:33 48.68833 9.19530 1290 ft 13 kts 74°
2026-05-08 14:33 48.68860 9.19673 1286 ft 15 kts 73°
2026-05-08 14:33 48.68886 9.19829 1285 ft 14 kts 87°
2026-05-08 14:34 48.68813 9.19918 1288 ft 15 kts 147°
2026-05-08 14:34 48.68723 9.19970 1288 ft 7 kts 165°
2026-05-08 14:34 48.68679 9.19988 1286 ft 4 kts 165°
2026-05-08 14:34 48.68673 9.19991 1288 ft 0 kts 164°
2026-05-08 14:36 48.68667 9.19994 1287 ft 5 kts 164°
2026-05-08 14:36 48.68593 9.20079 1285 ft 18 kts 104°
2026-05-08 14:36 48.68624 9.20283 1287 ft 24 kts 74°
2026-05-08 14:36 48.68702 9.20688 1285 ft 70 kts 74°
2026-05-08 14:37 48.68895 9.21703 1289 ft 128 kts 74°
2026-05-08 14:37 48.69183 9.23223 1322 ft 168 kts 72°
2026-05-08 14:37 48.69462 9.24903 2016 ft 161 kts 75°
2026-05-08 14:37 48.69758 9.26541 2687 ft 162 kts 73°
2026-05-08 14:38 48.70081 9.28189 3196 ft 167 kts 72°
2026-05-08 14:38 48.70433 9.29963 3360 ft 184 kts 71°
2026-05-08 14:38 48.70824 9.31931 3483 ft 206 kts 72°
2026-05-08 14:38 48.71254 9.34108 3598 ft 227 kts 73°
2026-05-08 14:39 48.71719 9.36534 3810 ft 252 kts 73°
2026-05-08 14:39 48.72212 9.39152 4345 ft 262 kts 74°
2026-05-08 14:39 48.72718 9.41845 4851 ft 269 kts 74°
2026-05-08 14:39 48.73232 9.44582 5102 ft 272 kts 74°
2026-05-08 14:40 48.73749 9.47338 5886 ft 273 kts 75°
2026-05-08 14:40 48.74271 9.50129 6616 ft 277 kts 75°
2026-05-08 14:40 48.74801 9.52971 7290 ft 282 kts 75°
2026-05-08 14:40 48.75341 9.55867 7952 ft 288 kts 75°
2026-05-08 14:41 48.75890 9.58807 8603 ft 292 kts 75°
2026-05-08 14:41 48.76450 9.61795 9281 ft 297 kts 75°
2026-05-08 14:41 48.77018 9.64830 9965 ft 301 kts 73°
2026-05-08 14:41 48.77595 9.67933 10341 ft 316 kts 74°
2026-05-08 14:42 48.78213 9.71248 10475 ft 338 kts 73°
2026-05-08 14:42 48.78872 9.74790 10602 ft 359 kts 74°
2026-05-08 14:42 48.79565 9.78527 10754 ft 377 kts 74°
2026-05-08 14:42 48.80281 9.82391 11260 ft 383 kts 74°
2026-05-08 14:43 48.80992 9.86312 11863 ft 387 kts 77°
2026-05-08 14:43 48.81216 9.90390 12441 ft 390 kts 95°
2026-05-08 14:43 48.80600 9.94384 13031 ft 391 kts 113°
2026-05-08 14:43 48.79536 9.98196 13634 ft 394 kts 114°
2026-05-08 14:44 48.78447 10.02025 14195 ft 397 kts 115°
2026-05-08 14:44 48.77345 10.05874 14722 ft 399 kts 115°
2026-05-08 14:44 48.76233 10.09750 15219 ft 403 kts 115°
2026-05-08 14:44 48.75113 10.13662 15700 ft 406 kts 115°
2026-05-08 14:45 48.74002 10.17549 16206 ft 409 kts 114°
2026-05-08 14:45 48.72866 10.21521 16702 ft 412 kts 115°
2026-05-08 14:45 48.71722 10.25517 17198 ft 415 kts 115°
2026-05-08 14:45 48.70573 10.29540 17682 ft 418 kts 114°
2026-05-08 14:46 48.69414 10.33589 18183 ft 421 kts 115°
2026-05-08 14:46 48.68246 10.37663 18625 ft 423 kts 115°
2026-05-08 14:46 48.67069 10.41766 19034 ft 426 kts 115°
2026-05-08 14:46 48.65868 10.45944 19443 ft 429 kts 115°
2026-05-08 14:47 48.64693 10.50011 19829 ft 432 kts 115°
2026-05-08 14:47 48.63473 10.54215 20233 ft 435 kts 115°
2026-05-08 14:47 48.62251 10.58416 20627 ft 438 kts 115°
2026-05-08 14:47 48.61018 10.62645 21036 ft 441 kts 115°
2026-05-08 14:48 48.59799 10.66826 21438 ft 443 kts 115°
2026-05-08 14:48 48.58532 10.71178 21860 ft 446 kts 115°
2026-05-08 14:48 48.57280 10.75477 22243 ft 449 kts 115°
2026-05-08 14:48 48.56015 10.79809 22628 ft 452 kts 115°
2026-05-08 14:49 48.54740 10.84159 23009 ft 454 kts 116°
2026-05-08 14:49 48.53453 10.88536 23391 ft 457 kts 116°
2026-05-08 14:49 48.52157 10.92934 23725 ft 461 kts 116°
2026-05-08 14:49 48.50848 10.97369 24049 ft 463 kts 116°
2026-05-08 14:50 48.49537 11.01817 24349 ft 466 kts 116°
2026-05-08 14:50 48.48214 11.06293 24651 ft 468 kts 116°
2026-05-08 14:50 48.46883 11.10781 24947 ft 471 kts 117°
2026-05-08 14:50 48.45543 11.15287 25242 ft 473 kts 117°
2026-05-08 14:51 48.44194 11.19820 25524 ft 475 kts 117°
2026-05-08 14:51 48.42842 11.24369 25825 ft 477 kts 117°
2026-05-08 14:51 48.41482 11.28942 26087 ft 480 kts 117°
2026-05-08 14:51 48.40112 11.33533 26367 ft 482 kts 117°
2026-05-08 14:52 48.38731 11.38140 26663 ft 484 kts 118°
2026-05-08 14:52 48.35957 11.47328 27227 ft 489 kts 118°
2026-05-08 14:52 48.34549 11.51986 27591 ft 489 kts 118°
2026-05-08 14:53 48.33149 11.56625 27995 ft 488 kts 118°
2026-05-08 14:53 48.31749 11.61262 28361 ft 487 kts 118°
2026-05-08 14:53 48.30348 11.65899 28722 ft 487 kts 119°
2026-05-08 14:53 48.28946 11.70541 29087 ft 487 kts 119°
2026-05-08 14:54 48.27546 11.75165 29450 ft 486 kts 119°
2026-05-08 14:54 48.26144 11.79783 29813 ft 486 kts 119°
2026-05-08 14:54 48.24739 11.84389 30163 ft 485 kts 120°
2026-05-08 14:54 48.23329 11.88994 30473 ft 485 kts 120°
2026-05-08 14:55 48.21935 11.93524 30795 ft 483 kts 120°
2026-05-08 14:55 48.20524 11.98103 31022 ft 483 kts 120°
2026-05-08 14:55 48.19121 12.02653 31069 ft 479 kts 120°
2026-05-08 14:56 48.16122 12.11463 31057 ft 469 kts 129°
2026-05-08 14:56 48.11940 12.18616 31048 ft 458 kts 142°
2026-05-08 14:57 48.07696 12.24693 31040 ft 458 kts 142°
2026-05-08 14:57 48.03147 12.31237 31040 ft 458 kts 142°
2026-05-08 14:58 47.98580 12.37790 31040 ft 458 kts 142°
2026-05-08 14:58 47.93981 12.44371 31023 ft 458 kts 142°
2026-05-08 14:59 47.89384 12.50932 31034 ft 457 kts 142°
2026-05-08 14:59 47.82552 12.60644 31035 ft 457 kts 142°
2026-05-08 15:00 47.77945 12.67169 31049 ft 457 kts 142°
2026-05-08 15:00 47.73378 12.73639 31030 ft 457 kts 142°
2026-05-08 15:01 47.68846 12.80018 31042 ft 456 kts 143°
2026-05-08 15:01 47.64288 12.86578 31055 ft 458 kts 141°
2026-05-08 15:02 47.59800 12.93292 31045 ft 458 kts 141°
2026-05-08 15:02 47.55352 12.99949 31054 ft 457 kts 141°
2026-05-08 15:03 47.50869 13.06590 31023 ft 457 kts 141°
2026-05-08 15:03 47.46342 13.13209 31012 ft 457 kts 141°
2026-05-08 15:04 47.41811 13.19808 31025 ft 458 kts 141°
2026-05-08 15:04 47.37283 13.26419 31039 ft 457 kts 141°
2026-05-08 15:05 47.33040 13.32632 31037 ft 459 kts 139°
2026-05-08 15:05 47.28964 13.39936 31026 ft 462 kts 134°
2026-05-08 15:06 47.24925 13.47295 31041 ft 461 kts 134°
2026-05-08 15:06 47.20886 13.54614 31041 ft 460 kts 134°
2026-05-08 15:07 47.16850 13.61908 31030 ft 457 kts 134°
2026-05-08 15:07 47.12853 13.69113 31052 ft 458 kts 134°
2026-05-08 15:08 47.09480 13.75185 31042 ft 458 kts 135°
2026-05-08 15:08 47.04789 13.83594 31041 ft 458 kts 135°
2026-05-08 15:09 47.00756 13.90812 31036 ft 458 kts 135°
2026-05-08 15:09 46.96711 13.98024 31032 ft 458 kts 135°
2026-05-08 15:10 46.92664 14.05219 30994 ft 458 kts 134°
2026-05-08 15:10 46.88574 14.12463 31025 ft 463 kts 134°
2026-05-08 15:11 46.84472 14.19711 31022 ft 463 kts 134°
2026-05-08 15:11 46.80370 14.26953 31016 ft 462 kts 134°
2026-05-08 15:12 46.76268 14.34188 31017 ft 462 kts 134°
2026-05-08 15:12 46.72162 14.41411 31007 ft 462 kts 135°
2026-05-08 15:13 46.68078 14.48560 31012 ft 462 kts 135°
2026-05-08 15:13 46.63971 14.55733 31019 ft 460 kts 135°
2026-05-08 15:14 46.59870 14.62875 31037 ft 459 kts 135°
2026-05-08 15:14 46.55767 14.69996 31026 ft 459 kts 135°
2026-05-08 15:15 46.52370 14.75881 31020 ft 458 kts 135°
2026-05-08 15:15 46.48278 14.82977 31021 ft 460 kts 135°
2026-05-08 15:16 46.44170 14.90120 31019 ft 461 kts 135°
2026-05-08 15:16 46.40193 14.97011 31031 ft 461 kts 135°
2026-05-08 15:17 46.36068 15.04140 31019 ft 461 kts 134°
2026-05-08 15:17 46.31944 15.11256 31034 ft 461 kts 134°
2026-05-08 15:18 46.27823 15.18349 31038 ft 461 kts 134°
2026-05-08 15:18 46.23686 15.25433 31041 ft 460 kts 135°
2026-05-08 15:19 46.19549 15.32483 31025 ft 460 kts 135°
2026-05-08 15:19 46.15414 15.39541 31026 ft 460 kts 135°
2026-05-08 15:20 46.11314 15.46530 31016 ft 459 kts 134°
2026-05-08 15:20 46.07189 15.53549 31017 ft 459 kts 134°
2026-05-08 15:21 46.03055 15.60541 31014 ft 458 kts 135°
2026-05-08 15:21 45.98911 15.67523 31018 ft 459 kts 135°
2026-05-08 15:22 45.94734 15.74452 31018 ft 458 kts 136°
2026-05-08 15:22 45.90447 15.81218 31020 ft 458 kts 137°
2026-05-08 15:23 45.86125 15.87935 31027 ft 458 kts 137°
2026-05-08 15:23 45.81823 15.94673 31005 ft 458 kts 136°
2026-05-08 15:24 45.77536 16.01433 31010 ft 458 kts 136°
2026-05-08 15:24 45.73246 16.08177 31023 ft 458 kts 136°
2026-05-08 15:25 45.68950 16.14901 31032 ft 458 kts 136°
2026-05-08 15:25 45.64650 16.21618 31031 ft 458 kts 136°
2026-05-08 15:26 45.60341 16.28325 31020 ft 458 kts 136°
2026-05-08 15:26 45.56032 16.35012 31028 ft 458 kts 136°
2026-05-08 15:27 45.51715 16.41702 31034 ft 458 kts 136°
2026-05-08 15:27 45.47396 16.48381 31040 ft 458 kts 136°
2026-05-08 15:28 45.43071 16.55043 31025 ft 458 kts 136°
2026-05-08 15:28 45.38744 16.61702 31034 ft 458 kts 136°
2026-05-08 15:29 45.34412 16.68350 31030 ft 458 kts 136°
2026-05-08 15:29 45.30075 16.74989 31025 ft 458 kts 136°
2026-05-08 15:30 45.25726 16.81628 31017 ft 458 kts 136°
2026-05-08 15:30 45.21378 16.88251 31026 ft 458 kts 136°
2026-05-08 15:31 45.17034 16.94855 31040 ft 458 kts 136°
2026-05-08 15:31 45.14881 16.98119 31272 ft 460 kts 136°
2026-05-08 15:31 45.12696 17.01431 31621 ft 459 kts 136°
2026-05-08 15:32 45.10520 17.04733 31984 ft 458 kts 136°
2026-05-08 15:32 45.08351 17.08016 32356 ft 456 kts 137°
2026-05-08 15:32 45.06179 17.11288 32715 ft 454 kts 137°
2026-05-08 15:32 45.03979 17.14488 32987 ft 453 kts 139°
2026-05-08 15:33 44.99484 17.20660 33029 ft 449 kts 140°
2026-05-08 15:33 44.94956 17.26729 33029 ft 449 kts 140°
2026-05-08 15:34 44.90451 17.32849 33030 ft 449 kts 140°
2026-05-08 15:34 44.85974 17.38986 33023 ft 449 kts 139°
2026-05-08 15:35 44.81485 17.45132 33025 ft 450 kts 139°
2026-05-08 15:35 44.76984 17.51260 33026 ft 450 kts 139°
2026-05-08 15:36 44.73210 17.56381 33024 ft 450 kts 139°
2026-05-08 15:36 44.67975 17.63470 33028 ft 450 kts 139°
2026-05-08 15:37 44.63468 17.69557 33028 ft 450 kts 139°
2026-05-08 15:37 44.58951 17.75638 33025 ft 450 kts 139°
2026-05-08 15:38 44.54435 17.81707 33016 ft 450 kts 140°
2026-05-08 15:38 44.49912 17.87789 33018 ft 450 kts 140°
2026-05-08 15:39 44.45387 17.93857 33015 ft 450 kts 140°
2026-05-08 15:39 44.40853 17.99908 33018 ft 450 kts 140°
2026-05-08 15:40 44.36352 18.05912 33025 ft 450 kts 140°
2026-05-08 15:40 44.31817 18.11932 33027 ft 450 kts 140°
2026-05-08 15:41 44.27282 18.17949 33018 ft 449 kts 140°
2026-05-08 15:41 44.22753 18.23958 33021 ft 449 kts 139°
2026-05-08 15:42 44.18215 18.29960 33026 ft 449 kts 140°
2026-05-08 15:42 44.13670 18.35938 33022 ft 449 kts 140°
2026-05-08 15:43 44.09127 18.41905 33017 ft 449 kts 140°
2026-05-08 15:43 44.04586 18.47862 33013 ft 449 kts 139°
2026-05-08 15:44 44.00039 18.53819 33014 ft 449 kts 139°
2026-05-08 15:44 43.95491 18.59753 33016 ft 448 kts 140°
2026-05-08 15:45 43.90943 18.65684 33012 ft 448 kts 139°
2026-05-08 15:45 43.86404 18.71597 33006 ft 448 kts 140°
2026-05-08 15:46 43.81885 18.77471 33023 ft 448 kts 140°
2026-05-08 15:46 43.77325 18.83368 33028 ft 448 kts 140°
2026-05-08 15:47 43.72772 18.89244 33021 ft 448 kts 140°
2026-05-08 15:47 43.68215 18.95115 33016 ft 447 kts 140°
2026-05-08 15:48 43.61376 19.03914 33008 ft 448 kts 140°
2026-05-08 15:49 43.56809 19.09776 33010 ft 448 kts 139°
2026-05-08 15:49 43.52262 19.15558 33010 ft 447 kts 141°
2026-05-08 15:50 43.47525 19.21075 32996 ft 446 kts 143°
2026-05-08 15:50 43.42669 19.26437 32997 ft 448 kts 143°
2026-05-08 15:51 43.37823 19.31826 33003 ft 449 kts 143°
2026-05-08 15:51 43.32999 19.37277 32996 ft 449 kts 142°
2026-05-08 15:52 43.28177 19.42730 33002 ft 449 kts 142°
2026-05-08 15:52 43.23346 19.48178 32993 ft 450 kts 142°
2026-05-08 15:53 43.18491 19.53636 33000 ft 451 kts 142°
2026-05-08 15:53 43.13617 19.59078 32999 ft 452 kts 143°
2026-05-08 15:54 43.08750 19.64505 32999 ft 451 kts 143°
2026-05-08 15:54 43.03879 19.69947 33003 ft 452 kts 142°
2026-05-08 15:55 42.99830 19.74459 33011 ft 452 kts 143°
2026-05-08 15:55 42.91710 19.83460 33010 ft 452 kts 143°
2026-05-08 15:56 42.86818 19.88857 33015 ft 453 kts 143°
2026-05-08 15:56 42.82720 19.93386 33016 ft 453 kts 143°
2026-05-08 15:57 42.77829 19.98790 33030 ft 453 kts 143°
2026-05-08 15:57 42.73242 20.04665 33033 ft 455 kts 131°
2026-05-08 15:58 42.69234 20.11336 33034 ft 455 kts 131°
2026-05-08 15:58 42.65231 20.17939 33033 ft 455 kts 131°
2026-05-08 15:59 42.61193 20.24567 33037 ft 455 kts 131°
2026-05-08 15:59 42.57160 20.31189 33034 ft 455 kts 131°
2026-05-08 16:00 42.53114 20.37813 33030 ft 456 kts 131°
2026-05-08 16:00 42.49057 20.44437 33030 ft 456 kts 131°
2026-05-08 16:01 42.45006 20.51052 33039 ft 456 kts 131°
2026-05-08 16:01 42.40951 20.57659 33046 ft 456 kts 131°
2026-05-08 16:02 42.36892 20.64246 33051 ft 456 kts 131°
2026-05-08 16:02 42.32835 20.70819 33054 ft 456 kts 131°
2026-05-08 16:03 42.28768 20.77395 33052 ft 455 kts 131°
2026-05-08 16:03 42.24710 20.83954 33057 ft 454 kts 131°
2026-05-08 16:04 42.20657 20.90472 33069 ft 452 kts 131°
2026-05-08 16:04 42.16619 20.96953 33067 ft 451 kts 131°
2026-05-08 16:05 42.12591 21.03415 33069 ft 450 kts 131°
2026-05-08 16:05 42.08229 21.09410 33064 ft 448 kts 138°
2026-05-08 16:06 42.03699 21.15160 33050 ft 447 kts 137°
2026-05-08 16:06 41.99200 21.20865 33051 ft 447 kts 137°
2026-05-08 16:07 41.94671 21.26595 33046 ft 447 kts 137°
2026-05-08 16:07 41.90133 21.32317 33040 ft 447 kts 137°
2026-05-08 16:08 41.85603 21.38033 33039 ft 447 kts 137°
2026-05-08 16:08 41.81064 21.43745 33045 ft 447 kts 137°
2026-05-08 16:09 41.76519 21.49450 33038 ft 447 kts 137°
2026-05-08 16:09 41.71970 21.55153 33034 ft 448 kts 137°
2026-05-08 16:10 41.67407 21.60856 33031 ft 449 kts 137°
2026-05-08 16:10 41.62837 21.66558 33036 ft 449 kts 137°
2026-05-08 16:11 41.58289 21.72218 33036 ft 449 kts 137°
2026-05-08 16:11 41.53715 21.77912 33043 ft 449 kts 137°
2026-05-08 16:12 41.49136 21.83597 33031 ft 450 kts 137°
2026-05-08 16:12 41.44538 21.89283 33029 ft 451 kts 137°
2026-05-08 16:13 41.39926 21.94971 33029 ft 452 kts 137°
2026-05-08 16:13 41.35307 22.00660 33036 ft 452 kts 137°
2026-05-08 16:14 41.30676 22.06355 33037 ft 453 kts 137°
2026-05-08 16:14 41.26043 22.12041 33048 ft 453 kts 137°
2026-05-08 16:15 41.21409 22.17725 33034 ft 454 kts 137°
2026-05-08 16:15 41.16778 22.23386 33040 ft 456 kts 137°
2026-05-08 16:16 41.11970 22.28880 33044 ft 457 kts 141°
2026-05-08 16:16 41.06987 22.34135 33047 ft 458 kts 142°
2026-05-08 16:17 41.02796 22.38507 33050 ft 458 kts 141°
2026-05-08 16:17 40.97022 22.44645 33063 ft 459 kts 141°
2026-05-08 16:18 40.92066 22.49970 33054 ft 459 kts 142°
2026-05-08 16:18 40.87106 22.55295 33054 ft 459 kts 142°
2026-05-08 16:19 40.82134 22.60597 33057 ft 460 kts 142°
2026-05-08 16:19 40.77149 22.65881 33059 ft 460 kts 142°
2026-05-08 16:20 40.72156 22.71168 33061 ft 460 kts 142°
2026-05-08 16:20 40.67167 22.76459 33050 ft 461 kts 142°
2026-05-08 16:21 40.62161 22.81752 33036 ft 462 kts 143°
2026-05-08 16:21 40.57140 22.87050 33036 ft 463 kts 143°
2026-05-08 16:22 40.52109 22.92350 32818 ft 464 kts 143°
2026-05-08 16:22 40.49587 22.94999 32559 ft 465 kts 143°
2026-05-08 16:22 40.47054 22.97564 32302 ft 464 kts 148°
2026-05-08 16:23 40.44277 22.99700 32048 ft 462 kts 156°
2026-05-08 16:23 40.41311 23.01316 31644 ft 462 kts 161°
2026-05-08 16:23 40.38301 23.02809 31150 ft 463 kts 161°
2026-05-08 16:23 40.35285 23.04293 30690 ft 464 kts 160°
2026-05-08 16:24 40.32255 23.05784 30259 ft 465 kts 160°
2026-05-08 16:24 40.29220 23.07283 29777 ft 467 kts 160°
2026-05-08 16:24 40.26171 23.08795 29274 ft 468 kts 160°
2026-05-08 16:24 40.23118 23.10312 28772 ft 470 kts 160°
2026-05-08 16:25 40.20055 23.11834 28288 ft 471 kts 162°
2026-05-08 16:25 40.16985 23.13358 27822 ft 472 kts 162°
2026-05-08 16:25 40.13911 23.14883 27338 ft 473 kts 162°
2026-05-08 16:25 40.10830 23.16410 26881 ft 474 kts 162°
2026-05-08 16:26 40.07740 23.17941 26428 ft 475 kts 162°
2026-05-08 16:26 40.04648 23.19470 25984 ft 476 kts 162°
2026-05-08 16:26 40.01544 23.21001 25545 ft 477 kts 162°
2026-05-08 16:26 39.98442 23.22525 25112 ft 477 kts 163°
2026-05-08 16:27 39.95332 23.24050 24692 ft 476 kts 163°
2026-05-08 16:27 39.92237 23.25568 24260 ft 473 kts 163°
2026-05-08 16:27 39.89160 23.27080 23851 ft 471 kts 163°
2026-05-08 16:27 39.86106 23.28581 23403 ft 468 kts 162°
2026-05-08 16:28 39.83069 23.30074 22918 ft 465 kts 163°
2026-05-08 16:28 39.80056 23.31553 22440 ft 462 kts 163°
2026-05-08 16:28 39.77096 23.33003 21955 ft 459 kts 164°
2026-05-08 16:28 39.74111 23.34460 21472 ft 457 kts 165°
2026-05-08 16:29 39.71143 23.35907 20903 ft 454 kts 165°
2026-05-08 16:29 39.68196 23.37345 20357 ft 451 kts 165°
2026-05-08 16:29 39.65272 23.38767 19823 ft 448 kts 165°
2026-05-08 16:29 39.62365 23.40180 19291 ft 445 kts 164°
2026-05-08 16:30 39.59490 23.41580 18784 ft 439 kts 164°
2026-05-08 16:30 39.56685 23.42952 18231 ft 421 kts 165°
2026-05-08 16:30 39.53998 23.44266 17630 ft 405 kts 166°
2026-05-08 16:30 39.51397 23.45530 17066 ft 396 kts 166°
2026-05-08 16:31 39.48828 23.46769 16500 ft 391 kts 166°
2026-05-08 16:31 39.46285 23.47993 15945 ft 385 kts 166°
2026-05-08 16:31 39.43792 23.49193 15401 ft 379 kts 166°
2026-05-08 16:31 39.41338 23.50372 14877 ft 373 kts 166°
2026-05-08 16:32 39.38926 23.51535 14350 ft 368 kts 166°
2026-05-08 16:32 39.36550 23.52688 13830 ft 361 kts 166°
2026-05-08 16:32 39.34230 23.53817 13256 ft 352 kts 166°
2026-05-08 16:32 39.31959 23.54919 12673 ft 344 kts 167°
2026-05-08 16:33 39.29761 23.55986 12113 ft 330 kts 167°
2026-05-08 16:33 39.27661 23.57010 11566 ft 316 kts 167°
2026-05-08 16:33 39.25635 23.57992 11038 ft 307 kts 168°
2026-05-08 16:33 39.23645 23.58943 10499 ft 303 kts 168°
2026-05-08 16:34 39.21674 23.59878 9981 ft 300 kts 168°
2026-05-08 16:34 39.19732 23.60665 9389 ft 291 kts 179°
2026-05-08 16:34 39.17767 23.60761 8804 ft 276 kts 194°
2026-05-08 16:34 39.15948 23.60176 8221 ft 264 kts 208°
2026-05-08 16:35 39.14329 23.59140 7715 ft 254 kts 212°
2026-05-08 16:35 39.12790 23.58130 7280 ft 243 kts 211°
2026-05-08 16:35 39.11315 23.57173 6846 ft 233 kts 211°
2026-05-08 16:35 39.09890 23.56250 6406 ft 225 kts 211°
2026-05-08 16:36 39.08522 23.55361 5983 ft 215 kts 210°
2026-05-08 16:36 39.07222 23.54515 5550 ft 203 kts 210°
2026-05-08 16:36 39.06016 23.53732 5099 ft 185 kts 209°
2026-05-08 16:36 39.04894 23.53001 4574 ft 177 kts 208°
2026-05-08 16:37 39.03828 23.52305 4028 ft 166 kts 207°
2026-05-08 16:37 39.02840 23.51605 3468 ft 160 kts 216°
2026-05-08 16:37 39.02160 23.50481 2914 ft 162 kts 243°
2026-05-08 16:37 39.01986 23.49051 2396 ft 164 kts 275°
2026-05-08 16:38 39.02373 23.47720 2344 ft 162 kts 302°
2026-05-08 16:38 39.02888 23.47027 2286 ft 163 kts 323°
2026-05-08 16:38 39.03926 23.46489 2170 ft 162 kts 353°
2026-05-08 16:38 39.05033 23.46636 2073 ft 160 kts 14°
2026-05-08 16:39 39.06115 23.46953 1944 ft 159 kts 14°
2026-05-08 16:39 39.07190 23.47266 1820 ft 158 kts 15°
2026-05-08 16:39 39.08259 23.47577 1690 ft 157 kts 15°
2026-05-08 16:39 39.09650 23.47967 1517 ft 152 kts 12°
2026-05-08 16:40 39.10355 23.48083 1387 ft 150 kts
2026-05-08 16:40 39.11388 23.48159 1171 ft 148 kts
2026-05-08 16:40 39.12415 23.48202 915 ft 147 kts
2026-05-08 16:40 39.13401 23.48430 762 ft 143 kts 17°
2026-05-08 16:41 39.14330 23.48889 557 ft 143 kts 18°
2026-05-08 16:41 39.15257 23.49314 393 ft 141 kts 12°
2026-05-08 16:41 39.16175 23.49699 218 ft 139 kts 14°
2026-05-08 16:42 39.17847 23.50418 40 ft 76 kts 19°
2026-05-08 16:42 39.18142 23.50549 49 ft 28 kts 19°
2026-05-08 16:42 39.18310 23.50624 58 ft 23 kts 19°
2026-05-08 16:42 39.18396 23.50686 55 ft 9 kts 18°
2026-05-08 16:43 39.18400 23.50657 59 ft 8 kts 202°
2026-05-08 16:43 39.18304 23.50623 58 ft 17 kts 197°
2026-05-08 16:43 39.18185 23.50570 52 ft 20 kts 201°
2026-05-08 16:43 39.18040 23.50505 46 ft 23 kts 199°
2026-05-08 16:44 39.17939 23.50427 43 ft 16 kts 243°
2026-05-08 16:44 39.17899 23.50317 42 ft 8 kts 258°
2026-05-08 16:44 39.17903 23.50282 46 ft 1 kts 282°
2026-05-08 16:44 39.17911 23.50248 48 ft 3 kts 288°
2026-05-08 16:45 39.17915 23.50233 52 ft 2 kts 289°